Haines, AK

3:37 PM AKDT on July 27, 2017 (GMT -0800)
Haines

Weather History for PAHN - April, 2013

Change the Weather History Date:

Thursday, April 11, 2013

  Actual Average Record
Temperature  
Mean Temperature 34 °F -  
Max Temperature 37 °F 44 °F 57 °F (1984)
Min Temperature 30 °F 31 °F 20 °F (1986)
Degree Days  
Heating Degree Days 30    
Moisture  
Dew Point 28 °F    
Average Humidity 78    
Maximum Humidity 96    
Minimum Humidity 64    
Precipitation  
Precipitation 0.02 in - - ()
Sea Level Pressure  
Sea Level Pressure 30.01 in    
Wind  
Wind Speed 11 mph (ESE)    
Max Wind Speed 17 mph    
Max Gust Speed 30 mph    
Visibility 8 miles    
Events Snow    
Averages and records for this station are not official NWS values.
T = Trace of Precipitation, MM = Missing Value Source: NWS Daily Summary

Daily Weather History Graph

Daily Weather History Graph

Search for Another Location

Airport or City:

Trip Planner

Search our weather history database for the weather conditions in past years. The results will help you decide how hot, cold, wet, or windy it might be!

Date:

Astronomy

Apr. 11, 2013 Rise Set
Actual Time 5:57 AM AKDT 8:09 PM AKDT
Civil Twilight 5:14 AM AKDT 8:53 PM AKDT
Nautical Twilight 4:17 AM AKDT 9:51 PM AKDT
Astronomical Twilight 3:05 AM AKDT 11:04 PM AKDT
Moon 6:12 AM AKDT (4/11) 10:21 PM AKDT (4/11)
Length of Visible Light 15h 39m
Length of Day
14h 11m
New Moon, 2% of the Moon is Illuminated
Apr 11
New Moon
Apr 18
First Quarter
Apr 25
Full
May 2
Last Quarter
May 9
New

Hourly Weather History & Observations

Time (AKDT) Temp. Windchill Dew Point Humidity Pressure Visibility Wind Dir Wind Speed Gust Speed Precip Events Conditions
12:54 AM 33.1 °F 24.4 °F 26.1 °F 75% 30.01 in 10.0 mi ESE 11.5 mph 20.7 mph 0.00 in   Overcast
1:54 AM 34.0 °F 24.2 °F 26.1 °F 73% 30.01 in 10.0 mi ESE 15.0 mph 24.2 mph 0.00 in   Mostly Cloudy
2:54 AM 33.1 °F 24.9 °F 26.1 °F 75% 30.01 in 10.0 mi ESE 10.4 mph 24.2 mph N/A   Scattered Clouds
3:54 AM 34.0 °F 24.2 °F 25.0 °F 70% 30.03 in 10.0 mi ESE 15.0 mph 24.2 mph N/A   Scattered Clouds
4:54 AM 33.1 °F 24.9 °F 25.0 °F 72% 30.05 in 10.0 mi ESE 10.4 mph 23.0 mph N/A   Mostly Cloudy
5:54 AM 33.1 °F 26.9 °F 21.9 °F 64% 30.06 in 10.0 mi Variable 6.9 mph - N/A   Overcast
6:54 AM 33.1 °F 24.9 °F 24.1 °F 70% 30.07 in 10.0 mi ESE 10.4 mph 19.6 mph N/A   Partly Cloudy
7:54 AM 34.0 °F 26.6 °F 25.0 °F 70% 30.08 in 10.0 mi ESE 9.2 mph 20.7 mph N/A   Overcast
8:54 AM 34.0 °F 23.8 °F 26.1 °F 73% 30.08 in 10.0 mi ESE 16.1 mph 24.2 mph 0.00 in   Overcast
9:02 AM 33.8 °F 24.3 °F 28.4 °F 81% 30.07 in 10.0 mi ESE 13.8 mph 24.2 mph 0.00 in   Overcast
9:20 AM 33.8 °F 24.8 °F 26.6 °F 75% 30.08 in 10.0 mi ESE 12.7 mph 21.9 mph 0.00 in   Scattered Clouds
9:54 AM 35.1 °F 25.2 °F 28.0 °F 76% 30.09 in 10.0 mi ESE 16.1 mph 26.5 mph 0.00 in   Partly Cloudy
10:54 AM 35.1 °F 24.8 °F 28.0 °F 76% 30.09 in 6.0 mi ESE 17.3 mph 26.5 mph 0.00 in Snow Light Snow
11:51 AM 35.6 °F 26.2 °F 26.6 °F 70% 30.08 in 9.0 mi ESE 15.0 mph 29.9 mph 0.00 in   Overcast
11:54 AM 36.0 °F 26.3 °F 28.0 °F 73% 30.09 in 9.0 mi ESE 16.1 mph 29.9 mph 0.00 in   Overcast
12:54 PM 36.0 °F 26.3 °F 28.0 °F 73% 30.08 in 10.0 mi ESE 16.1 mph 26.5 mph 0.00 in   Mostly Cloudy
1:16 PM 35.6 °F 25.9 °F 28.4 °F 75% 30.07 in 9.0 mi ESE 16.1 mph 28.8 mph 0.00 in   Overcast
1:54 PM 35.1 °F 26.4 °F 30.0 °F 82% 30.08 in 2.0 mi ESE 12.7 mph 24.2 mph 0.00 in Snow Light Snow
2:01 PM 35.6 °F 26.6 °F 30.2 °F 81% 30.07 in 1.8 mi ESE 13.8 mph 24.2 mph 0.00 in Snow Light Snow
2:07 PM 35.6 °F 28.0 °F 30.2 °F 81% 30.06 in 2.5 mi ESE 10.4 mph 21.9 mph 0.00 in Snow Light Snow
2:17 PM 35.6 °F 27.5 °F 32.0 °F 87% 30.06 in 3.0 mi ESE 11.5 mph 20.7 mph 0.00 in Snow Light Snow
2:29 PM 35.6 °F 27.1 °F 30.2 °F 81% 30.05 in 2.5 mi East 12.7 mph 21.9 mph 0.00 in Snow Light Snow
2:37 PM 35.6 °F 28.6 °F 30.2 °F 81% 30.05 in 8.0 mi ESE 9.2 mph 21.9 mph 0.00 in Snow Light Snow
2:45 PM 37.4 °F 30.3 °F 30.2 °F 75% 30.05 in 10.0 mi ESE 10.4 mph - 0.00 in   Overcast
2:54 PM 37.0 °F 30.4 °F 28.0 °F 70% 30.05 in 10.0 mi East 9.2 mph 17.3 mph 0.00 in   Overcast
3:24 PM 35.6 °F 26.2 °F 30.2 °F 81% 30.04 in 9.0 mi ESE 15.0 mph 26.5 mph 0.00 in   Overcast
3:45 PM 35.6 °F 26.2 °F 30.2 °F 81% 30.04 in 10.0 mi ESE 15.0 mph 24.2 mph 0.00 in   Overcast
3:54 PM 36.0 °F 26.7 °F 28.9 °F 76% 30.04 in 10.0 mi ESE 15.0 mph 25.3 mph 0.00 in   Overcast
4:19 PM 35.6 °F 26.6 °F 30.2 °F 81% 30.03 in 1.8 mi ESE 13.8 mph 20.7 mph 0.00 in Snow Light Snow
4:45 PM 33.8 °F 25.3 °F 30.2 °F 87% 30.01 in 3.0 mi East 11.5 mph 20.7 mph 0.00 in Snow Light Snow
4:49 PM 35.6 °F 26.6 °F 30.2 °F 81% 30.01 in 5.0 mi ESE 13.8 mph 21.9 mph 0.00 in Snow Light Snow
4:54 PM 35.1 °F 25.9 °F 30.0 °F 82% 30.02 in 9.0 mi ESE 13.8 mph 21.9 mph 0.00 in   Overcast
5:01 PM 35.6 °F 27.5 °F 28.4 °F 75% 30.01 in 10.0 mi ESE 11.5 mph 24.2 mph N/A   Overcast
5:54 PM 35.1 °F 27.9 °F 28.9 °F 78% 30.01 in 10.0 mi ESE 9.2 mph - N/A   Overcast
6:54 PM 36.0 °F 30.3 °F 27.0 °F 70% 29.99 in 10.0 mi ESE 6.9 mph - N/A   Overcast
7:50 PM 35.6 °F 29.9 °F 26.6 °F 70% 29.95 in 10.0 mi Variable 6.9 mph - N/A   Overcast
7:54 PM 35.1 °F 28.6 °F 27.0 °F 72% 29.96 in 10.0 mi ENE 8.1 mph - N/A   Overcast
8:17 PM 35.6 °F 29.9 °F 26.6 °F 70% 29.94 in 10.0 mi East 6.9 mph - N/A   Overcast
8:54 PM 35.1 °F 29.3 °F 26.1 °F 70% 29.94 in 10.0 mi Variable 6.9 mph - N/A   Mostly Cloudy
9:22 PM 35.6 °F 29.9 °F 26.6 °F 70% 29.93 in 10.0 mi East 6.9 mph - N/A   Overcast
9:42 PM 33.8 °F 27.7 °F 28.4 °F 81% 29.93 in 2.5 mi East 6.9 mph - 0.00 in Snow Light Snow
9:47 PM 32.0 °F 26.4 °F 28.4 °F 87% 29.93 in 1.5 mi East 5.8 mph - 0.01 in Snow Light Snow
9:54 PM 32.0 °F 26.4 °F 30.0 °F 92% 29.94 in 1.0 mi East 5.8 mph - 0.01 in Snow Light Snow
10:17 PM 32.0 °F 28.7 °F 30.2 °F 93% 29.92 in 1.2 mi East 3.5 mph - 0.01 in Snow Light Snow
10:24 PM 32.0 °F - 30.2 °F 93% 29.91 in 2.0 mi Calm Calm - 0.01 in Snow Light Snow
10:33 PM 32.0 °F - 30.2 °F 93% 29.90 in 5.0 mi Calm Calm - 0.01 in Snow Light Snow
10:43 PM 32.0 °F - 30.2 °F 93% 29.90 in 7.0 mi Calm Calm - 0.01 in Snow Light Snow
10:54 PM 32.0 °F - 30.0 °F 92% 29.91 in 9.0 mi Calm Calm - 0.01 in   Overcast
11:54 PM 30.9 °F 27.5 °F 30.0 °F 96% 29.89 in 10.0 mi WNW 3.5 mph - N/A   Overcast